sat.trackr.live / text

‹ back to catalog

YAOGAN-42 01

NORAD 59395 · 2024-063A

PAYLOAD ACTIVE UNKNOWN

§ Identity

Operator
Country
PRC
Launch date
2024-04-02
Launch site
XICLF
Launch vehicle
Mass (kg)
RCS (m²)

External: N2YO · Heavens-Above · Gunter

§ Orbital elements

Epoch: 2026-09-22T23:08:08.166624Z

Period
94.56 min
Inclination
34.9976°
Eccentricity
0.0002824
Mean motion
15.22796821 rev/d
Perigee alt
495.5 km
Apogee alt
499.4 km
Semi-major
6,875.5 km
B*
2.5856e-4
RAAN
230.9254°
Arg perigee
147.8422°
Mean anomaly
212.2465°
Rev number
13,776

§ Raw data

YAOGAN-42 011 59395U 24063A   26265.96398341  .00006160  00000+0  25856-3 0  99912 59395  34.9976 230.9254 0002824 147.8422 212.2465 15.22796821137769

JSON: /api/v1/satellites/59395 · /tle

For live sub-satellite position, see the globe view (requires WebGL).

§ Visibility from observer

Set your observer location to see the next 7 days of passes ≥ 10°. The values pass through the URL so the page stays shareable.

No JS? Fill the form by hand. The geolocation button needs JavaScript.